Regional Weather Roundup
Issued by NWS

Home | Current Version | Previous Version | Graphics & Text | Print | Product List | Glossary On
Versions: 1 2 3 4 5 6 7 8 9 10 11 12 13 14 15 16 17 18 19 20 21 22 23 24 25 26 27 28 29 30 31 32 33 34 35 36 37 38 39 40 41 42 43 44 45 46 47 48 49 50
000
ASUS43 KDTX 301010
RWRMI
MICHIGAN HOURLY REGIONAL WEATHER ROUNDUP
NATIONAL WEATHER SERVICE DETROIT/PONTIAC MI
600 AM EDT SUN APR 30 2017

NOTE: "FAIR" INDICATES FEW OR NO CLOUDS BELOW 12,000 FEET WITH NO
SIGNIFICANT WEATHER AND/OR OBSTRUCTION TO VISIBILITY.

MIZ047>049-052>055-059>063-066>070-074>076-081>083-301100-
SOUTHEAST LOWER MICHIGAN

CITY           SKY/WX    TMP DP  RH WIND       PRES   REMARKS
ADRIAN         CLOUDY    44  42  93 E13       30.00S
ALMA           LGT RAIN  40  39  97 NE15G21   30.08F WCI  32
ANN ARBOR      CLOUDY    44  42  93 NE10      30.02S
BAD AXE        LGT RAIN  39  36  87 E12G20    30.13S WCI  32
CARO           LGT RAIN  40  39  95 NE8       30.10S WCI  35
DETROIT CITY   CLOUDY    44  42  93 NE7       30.07R
DETROIT        CLOUDY    46  43  89 E9        30.06S
FLINT          CLOUDY    42  38  85 E13       30.07R
GROSSE ILE     CLOUDY    46  40  82 E7        30.04S
HILLSDALE      DRIZZLE   43  37  81 E14G24    29.98R
HOWELL         CLOUDY    43  40  87 E12       30.03S

CITY           SKY/WX    TMP DP  RH WIND       PRES   REMARKS
JACKSON        LGT RAIN  43  40  89 E12       30.01S
LAMBERTVILLE   CLOUDY    47  44  88 E13G22    30.01R
LANSING        LGT RAIN  41  37  86 NE9       30.04S
LAPEER         CLOUDY    42  38  88 E12       30.07S
MASON          CLOUDY    42  40  94 E6        30.03F
MONROE         CLOUDY    46  42  83 E14G20    30.03R
MT. CLEMENS    CLOUDY    45  41  87 E12       30.07R
PONTIAC        CLOUDY    43  38  82 E14       30.03S
PORT HOPE        N/A     41  37  86 NE24      30.13F
PORT HURON     CLOUDY    43  37  81 E12       30.09R
TRI CITIES     LGT RAIN  42  40  92 NE15G25   30.10S FOG
MIDLAND        LGT RAIN  42  38  85 NE10G21   30.13R
TROY           CLOUDY    44  39  83 NE14      30.08R
SAGINAW HB     LGT RAIN  41  36  81 NE15      30.08F
$$
MIZ043>046-050>051-056>058-064>065-071>073-077>080-301100-
SOUTHWEST LOWER MICHIGAN

CITY           SKY/WX    TMP DP  RH WIND       PRES   REMARKS
BATTLE CREEK   CLOUDY    43  39  86 E10       30.00F
BENTON HARBOR  CLOUDY    45  40  82 E12       29.93F
BIG RAPIDS     MIX PCPN  39  37  90 E12G21    30.09S WCI  32
COLDWATER      CLOUDY    44  41  88 E7        29.99S
FREMONT        LGT RAIN  41  39  93 E14G22    30.05S
HOLLAND        LGT RAIN  42  40  92 E14       29.98F
GRAND RAPIDS   LGT RAIN  41  41 100 E14       30.02R FOG
IONIA          LGT RAIN  40  38  93 E13       30.03S WCI  33
KALAMAZOO      RAIN      43  38  82 E8        29.99S
LUDINGTON      DRIZZLE   39  39 100 NE8       30.08F WCI  34
MARSHALL       CLOUDY    43  40  90 E7        29.99F
MOUNT PLEASANT RAIN      41  39  92 E14       30.10S
MUSKEGON       CLOUDY    42  40  92 E15G23    30.02F FOG
SOUTH HAVEN    LGT RAIN  42  40  93 E13       29.94F
$$
MIZ016>042-301100-
NORTHERN LOWER MICHIGAN

CITY           SKY/WX    TMP DP  RH WIND       PRES   REMARKS
ALPENA         LGT RAIN  36  33  89 E14       30.26S WCI  27
BEAVER ISLAND  CLOUDY    42  31  66 E16       30.24R
BELLAIRE       CLOUDY    39  34  81 E9        30.21S WCI  33
CADILLAC       LGT SNOW  37  36  94 E16       30.11S WCI  28
CHARLEVOIX     LGT RAIN  40  33  77 E15G24    30.24F WCI  32
FRANKFORT      DRIZZLE   40  37  89 NE7       30.13F WCI  35
GAYLORD        LGT RAIN  37  32  82 NE10      30.19F WCI  30
GRAYLING       MIX PCPN  35  33  93 NE15      30.18S WCI  25
HARBOR SPRINGS DRIZZLE   37  33  84 E12       30.24R WCI  30
HOUGHTON LAKE  RAIN      36  34  92 NE16      30.14F FOG     WCI  26
MANISTEE       LGT RAIN  40  39  97 NE13      30.10F FOG     WCI  32
OSCODA         MIX PCPN  38  35  89 NE17G24   30.20R WCI  28
PELLSTON       CLOUDY    39  29  67 E12       30.25S WCI  32
ROGERS CITY    CLOUDY    37  31  79 E15       30.28R WCI  27
TRAVERSE CITY  LGT RAIN  40  35  83 E15G23    30.17F WCI  32
$$
MIZ007>008-015-301100-
EASTERN UPPER MICHIGAN

CITY           SKY/WX    TMP DP  RH WIND       PRES   REMARKS
KINROSS        CLOUDY    40  27  59 E8        30.27R WCI  34
MACKINAC ISLAN CLOUDY    39  30  70 E13G22    30.26R WCI  32
NEWBERRY       CLOUDY    37  31  77 NE3       30.26R
S. S. MARIE    CLOUDY    43  25  49 E7        30.27R
MUNISING         N/A     37  33  85 CALM      30.22F
$$
MIZ004>006-011>014-085-301100-
CENTRAL UPPER MICHIGAN

CITY           SKY/WX    TMP DP  RH WIND       PRES   REMARKS
MANISTIQUE     CLOUDY    41  30  65 E14G20    30.22F
ESCANABA       CLOUDY    41  29  62 NE9       30.19F
MENOMINEE      CLOUDY    40  32  73 E15       30.17F WCI  32
SAWYER-GWINN   CLOUDY    35  29  80 E8        30.21F WCI  28
$$
MIZ001>003-009>011-084-301100-
WESTERN UPPER MICHIGAN

CITY           SKY/WX    TMP DP  RH WIND       PRES   REMARKS
IRON MOUNTAIN  PTCLDY    37  22  54 NE6       30.16F WCI  32
HOUGHTON       CLOUDY    38  20  48 E6        30.22F WCI  33
COPPER HARBOR    N/A     34  29  82 CALM      30.26F
IRONWOOD       CLOUDY    35  21  56 NE6       30.20F WCI  30
$$

ABBREVIATIONS USED IN REMARKS
   TC - TEMPERATURE IN CELSIUS
  WCI - WIND CHILL INDEX
   HX - HEAT INDEX
  VSB - VISIBILITY





USA.gov is the U.S. government's official web portal to all federal, state and local government web resources and services.